Weather History for Mansfield, OH

Change the Weather History Date:

Friday, March 22, 2013

  Actual Average Record
Temperature  
Mean Temperature 31 °F 39 °F  
Max Temperature 39 °F 49 °F 84 °F (2012)
Min Temperature 22 °F 30 °F 12 °F (1959)
Degree Days  
Heating Degree Days 34 26  
Month to date heating degree days 722 652  
Since 1 July heating degree days 5095 5277  
Cooling Degree Days 0 0  
Month to date cooling degree days 0 0  
Year to date cooling degree days 0 0  
Moisture  
Dew Point 18 °F    
Average Humidity 65    
Maximum Humidity 81    
Minimum Humidity 48    
Precipitation  
Precipitation T in 0.12 in 0.67 in (1949)
Month to date precipitation 1.49 2.27  
Year to date precipitation 6.22 7.53  
Snow  
Snow T in 0.20 in - ()
Month to date snowfall 4.9 6.3  
Since 1 July snowfall 34.7 44.2  
Snow Depth 0.00 in    
Sea Level Pressure  
Sea Level Pressure 29.99 in    
Wind  
Wind Speed 9 mph (West)    
Max Wind Speed 16 mph    
Max Gust Speed 28 mph    
Visibility 9 miles    
Events Snow    
T = Trace of Precipitation, MM = Missing Value Source: NWS Daily Summary

Daily Weather History Graph

Daily Weather History Graph

Search for Another Location

Airport:

Trip Planner

Search our weather history database for the weather conditions in past years. The results will help you decide how hot, cold, wet, or windy it might be!

Date:

Astronomy

Mar. 22, 2013 Rise Set
Actual Time 7:29 AM EDT 7:44 PM EDT
Civil Twilight 7:02 AM EDT 8:12 PM EDT
Nautical Twilight 6:30 AM EDT 8:44 PM EDT
Astronomical Twilight 5:57 AM EDT 9:17 PM EDT
Moon 3:09 PM EDT (3/22) 4:31 AM EDT (3/22)
Length of Visible Light 13h 09m
Length of Day
12h 14m
Waxing Gibbous, 77% of the Moon is Illuminated
Mar 22
Waxing Gibbous
Mar 27
Full
Apr 3
Last Quarter
Apr 10
New
Apr 18
First Quarter

Hourly Weather History & Observations

Time (EDT) Temp. Windchill Dew Point Humidity Pressure Visibility Wind Dir Wind Speed Gust Speed Precip Events Conditions
12:52 AM 26.1 °F 18.4 °F 17.1 °F 69% 29.97 in 9.0 mi West 6.9 mph - 0.00 in Snow Light Snow
1:25 AM 24.8 °F 19.1 °F 17.6 °F 74% 29.92 in 9.0 mi West 4.6 mph - 0.00 in Snow Light Snow
1:52 AM 24.1 °F 15.2 °F 17.1 °F 75% 29.97 in 9.0 mi WSW 8.1 mph - 0.00 in Snow Light Snow
2:03 AM 24.8 °F 16.9 °F 17.6 °F 74% 29.92 in 9.0 mi West 6.9 mph - 0.00 in Snow Light Snow
2:52 AM 23.0 °F 12.4 °F 16.0 °F 74% 29.97 in 9.0 mi West 10.4 mph - 0.00 in Snow Light Snow
3:52 AM 21.9 °F 11.0 °F 16.0 °F 78% 29.97 in 9.0 mi West 10.4 mph - 0.00 in Snow Light Snow
4:52 AM 23.0 °F 12.4 °F 16.0 °F 74% 29.96 in 9.0 mi West 10.4 mph - 0.00 in Snow Light Snow
5:20 AM 23.0 °F 13.9 °F 15.8 °F 74% 29.92 in 9.0 mi West 8.1 mph 17.3 mph 0.00 in Snow Light Snow
5:52 AM 24.1 °F 12.5 °F 17.1 °F 75% 29.98 in 9.0 mi West 12.7 mph 17.3 mph 0.00 in Snow Light Snow
6:52 AM 23.0 °F 13.1 °F 18.0 °F 81% 29.99 in 7.0 mi West 9.2 mph - 0.00 in   Overcast
7:52 AM 23.0 °F 12.4 °F 17.1 °F 78% 30.01 in 9.0 mi West 10.4 mph - N/A   Overcast
8:52 AM 24.1 °F 17.0 °F 17.1 °F 75% 30.01 in 8.0 mi Variable 5.8 mph - N/A   Overcast
9:52 AM 24.1 °F 15.2 °F 19.0 °F 81% 30.02 in 5.0 mi West 8.1 mph - 0.00 in   Haze
10:52 AM 26.1 °F 16.8 °F 17.1 °F 69% 30.02 in 9.0 mi WNW 9.2 mph 17.3 mph 0.00 in   Overcast
11:52 AM 28.0 °F 18.6 °F 17.1 °F 63% 30.02 in 10.0 mi West 10.4 mph - N/A   Overcast
12:52 PM 28.9 °F 21.1 °F 18.0 °F 64% 30.03 in 10.0 mi West 8.1 mph - N/A   Overcast
1:52 PM 32.0 °F 24.8 °F 19.9 °F 61% 30.02 in 10.0 mi WNW 8.1 mph - N/A   Overcast
2:05 PM 32.0 °F 24.2 °F 17.6 °F 55% 29.97 in 10.0 mi West 9.2 mph - N/A   Mostly Cloudy
2:52 PM 34.0 °F 25.5 °F 19.9 °F 56% 30.01 in 10.0 mi WNW 11.5 mph 16.1 mph N/A   Overcast
3:52 PM 37.0 °F 29.3 °F 21.9 °F 54% 29.99 in 10.0 mi WSW 11.5 mph - N/A   Partly Cloudy
4:52 PM 37.9 °F 30.5 °F 21.0 °F 51% 29.99 in 10.0 mi West 11.5 mph 17.3 mph N/A   Partly Cloudy
5:52 PM 37.9 °F 30.9 °F 19.9 °F 48% 29.99 in 10.0 mi WSW 10.4 mph - N/A   Clear
6:52 PM 36.0 °F 29.0 °F 19.9 °F 52% 29.99 in 10.0 mi West 9.2 mph - N/A   Clear
7:52 PM 34.0 °F 29.8 °F 19.0 °F 54% 30.01 in 10.0 mi WSW 4.6 mph - N/A   Clear
8:52 PM 30.9 °F 26.2 °F 19.9 °F 64% 30.03 in 10.0 mi WSW 4.6 mph - N/A   Clear
9:52 PM 30.9 °F 27.5 °F 19.0 °F 61% 30.04 in 10.0 mi WSW 3.5 mph - N/A   Clear
10:52 PM 30.9 °F 26.2 °F 19.0 °F 61% 30.04 in 10.0 mi WSW 4.6 mph - N/A   Clear
11:52 PM 30.0 °F 24.1 °F 19.0 °F 64% 30.03 in 10.0 mi WSW 5.8 mph - N/A   Clear